• In Netherlands
  • List of Countries
  • For 7 days
  • Water Temperature
  • Satellite Maps
  • Weather Map
  • Weather Widgets
  • user-avatar
    Login

    Hourly Weather New York

    Today, 19 January, Friday

    Time Temperature Precipitation Wind Pressure Humidity
    00:00 -7°C° 0 mm 4 mps 763 mmHg 80%
    01:00 -7°C° 0 mm 4 mps 763 mmHg 80%
    02:00 -8°C° 0 mm 4 mps 763 mmHg 80%
    03:00 -8°C° 0 mm 4 mps 763 mmHg 80%
    04:00 -8°C° 0 mm 5 mps 762 mmHg 80%
    05:00 -8°C° 0 mm 5 mps 763 mmHg 80%
    06:00 -8°C° 0 mm 5 mps 763 mmHg 79%
    07:00 -8°C° 0 mm 5 mps 763 mmHg 79%
    08:00 -7°C° 0 mm 5 mps 763 mmHg 75%
    09:00 -6°C° 0 mm 5 mps 763 mmHg 71%
    10:00 -5°C° 0 mm 5 mps 763 mmHg 67%
    11:00 -4°C° 0 mm 5 mps 763 mmHg 66%
    12:00 -2°C° 0 mm 5 mps 762 mmHg 64%
    13:00 -1°C° 0 mm 5 mps 762 mmHg 62%
    14:00 -1°C° 0 mm 5 mps 762 mmHg 64%
    15:00 -1°C° 0 mm 4 mps 762 mmHg 67%
    16:00 0°C° 0 mm 4 mps 762 mmHg 69%
    17:00 -1°C° 0 mm 5 mps 762 mmHg 73%
    18:00 -2°C° 0 mm 5 mps 762 mmHg 77%
    19:00 -4°C° 0 mm 5 mps 762 mmHg 81%
    20:00 -4°C° 0 mm 5 mps 762 mmHg 80%
    21:00 -4°C° 0 mm 5 mps 762 mmHg 80%
    22:00 -4°C° 0 mm 5 mps 762 mmHg 80%
    23:00 -2°C° 0 mm 5 mps 761 mmHg 78%

    Tomorrow, 20 January, Saturday

    Time Temperature Precipitation Wind Pressure Humidity
    00:00 -2°C° 0 mm 5 mps 761 mmHg 77%
    01:00 -3°C° 0 mm 6 mps 761 mmHg 75%
    02:00 -3°C° 0 mm 6 mps 760 mmHg 75%
    03:00 -3°C° 0 mm 6 mps 760 mmHg 75%
    04:00 -3°C° 0 mm 6 mps 760 mmHg 75%
    05:00 -3°C° 0 mm 6 mps 760 mmHg 73%
    06:00 -2°C° 0 mm 6 mps 760 mmHg 72%
    07:00 -2°C° 0 mm 7 mps 760 mmHg 71%
    08:00 -1°C° 0 mm 7 mps 760 mmHg 67%
    09:00 0°C° 0 mm 7 mps 760 mmHg 63%
    10:00 +3°C° 0 mm 7 mps 760 mmHg 60%
    11:00 +3°C° 0 mm 7 mps 760 mmHg 59%
    12:00 +4°C° 0 mm 6 mps 760 mmHg 58%
    13:00 +5°C° 0 mm 6 mps 760 mmHg 57%
    14:00 +5°C° 0 mm 5 mps 760 mmHg 62%
    15:00 +5°C° 0 mm 5 mps 760 mmHg 67%
    16:00 +4°C° 0 mm 4 mps 760 mmHg 72%
    17:00 +3°C° 0 mm 4 mps 761 mmHg 77%
    18:00 +1°C° 0 mm 4 mps 762 mmHg 82%
    19:00 0°C° 0 mm 4 mps 762 mmHg 87%
    20:00 0°C° 0 mm 4 mps 763 mmHg 88%
    21:00 -1°C° 0 mm 4 mps 763 mmHg 88%
    22:00 -1°C° 0 mm 4 mps 763 mmHg 89%
    23:00 -1°C° 0 mm 4 mps 763 mmHg 89%

    Day after tomorrow, 21 January, Sunday

    Time Temperature Precipitation Wind Pressure Humidity
    00:00 -1°C° 0 mm 4 mps 763 mmHg 88%
    01:00 -1°C° 0 mm 4 mps 763 mmHg 88%
    02:00 -1°C° 0 mm 4 mps 764 mmHg 88%
    03:00 -1°C° 0 mm 4 mps 764 mmHg 87%
    04:00 -1°C° 0 mm 4 mps 764 mmHg 87%
    05:00 -1°C° 0 mm 4 mps 764 mmHg 87%
    06:00 -2°C° 0 mm 4 mps 765 mmHg 87%
    07:00 -2°C° 0 mm 4 mps 765 mmHg 88%
    08:00 -1°C° 0 mm 4 mps 765 mmHg 83%
    09:00 +1°C° 0 mm 4 mps 766 mmHg 78%
    10:00 +3°C° 0 mm 4 mps 766 mmHg 73%
    11:00 +4°C° 0 mm 4 mps 765 mmHg 71%
    12:00 +5°C° 0 mm 4 mps 765 mmHg 68%
    13:00 +6°C° 0 mm 4 mps 764 mmHg 65%
    14:00 +7°C° 0 mm 3 mps 765 mmHg 68%
    15:00 +5°C° 0 mm 3 mps 765 mmHg 71%
    16:00 +6°C° 0 mm 2 mps 765 mmHg 73%
    17:00 +5°C° 0 mm 2 mps 766 mmHg 77%
    18:00 +4°C° 0 mm 2 mps 766 mmHg 82%
    19:00 +4°C° 0 mm 2 mps 767 mmHg 86%
    20:00 +4°C° 0 mm 2 mps 767 mmHg 87%
    21:00 +3°C° 0 mm 2 mps 767 mmHg 89%
    22:00 +3°C° 0 mm 2 mps 767 mmHg 91%
    23:00 +4°C° 0 mm 1 mps 767 mmHg 92%

    22 January, Monday

    Time Temperature Precipitation Wind Pressure Humidity
    00:00 +4°C° 0 mm 1 mps 767 mmHg 93%
    01:00 +4°C° 0 mm 1 mps 767 mmHg 94%
    02:00 +4°C° 0 mm 1 mps 767 mmHg 95%
    03:00 +4°C° 0 mm 1 mps 767 mmHg 95%
    04:00 +3°C° 0 mm 0 mps 767 mmHg 95%
    05:00 +4°C° 0.1 mm 1 mps 768 mmHg 96%
    06:00 +4°C° 0.1 mm 1 mps 768 mmHg 96%
    07:00 +3°C° 0.1 mm 2 mps 768 mmHg 96%
    08:00 +3°C° 0.1 mm 2 mps 768 mmHg 96%
    09:00 +3°C° 0.1 mm 2 mps 769 mmHg 96%
    10:00 +2°C° 0.1 mm 3 mps 769 mmHg 96%
    11:00 +3°C° 0.2 mm 3 mps 768 mmHg 96%
    12:00 +3°C° 0.2 mm 3 mps 768 mmHg 96%
    13:00 +3°C° 0.2 mm 3 mps 767 mmHg 95%
    14:00 +4°C° 0.1 mm 3 mps 767 mmHg 95%
    15:00 +4°C° 0.1 mm 3 mps 767 mmHg 95%
    16:00 +4°C° 0.1 mm 3 mps 766 mmHg 95%
    17:00 +4°C° 0 mm 4 mps 766 mmHg 96%
    18:00 +5°C° 0 mm 4 mps 766 mmHg 96%
    19:00 +5°C° 0 mm 4 mps 765 mmHg 97%
    20:00 +6°C° 0.1 mm 5 mps 764 mmHg 96%
    21:00 +6°C° 0.1 mm 5 mps 764 mmHg 96%
    22:00 +7°C° 0.1 mm 6 mps 763 mmHg 95%
    23:00 +7°C° 0.1 mm 6 mps 762 mmHg 95%

    23 January, Tuesday

    Time Temperature Precipitation Wind Pressure Humidity
    00:00 +7°C° 0.1 mm 5 mps 761 mmHg 94%
    01:00 +6°C° 0.1 mm 5 mps 760 mmHg 93%
    02:00 +6°C° 1.5 mm 5 mps 759 mmHg 94%
    03:00 +6°C° 1.5 mm 5 mps 758 mmHg 95%
    04:00 +6°C° 1.5 mm 5 mps 757 mmHg 96%
    05:00 +6°C° 3.7 mm 5 mps 757 mmHg 96%
    06:00 +6°C° 3.7 mm 5 mps 756 mmHg 97%
    07:00 +6°C° 3.7 mm 4 mps 755 mmHg 97%
    08:00 +6°C° 0.6 mm 5 mps 756 mmHg 85%
    09:00 +7°C° 0.6 mm 6 mps 756 mmHg 74%
    10:00 +6°C° 0.6 mm 7 mps 757 mmHg 62%
    11:00 +6°C° 0 mm 7 mps 757 mmHg 60%
    12:00 +6°C° 0 mm 8 mps 757 mmHg 58%
    13:00 +6°C° 0 mm 8 mps 757 mmHg 56%
    14:00 +6°C° 0 mm 8 mps 757 mmHg 56%
    15:00 +5°C° 0 mm 8 mps 758 mmHg 56%
    16:00 +5°C° 0 mm 8 mps 758 mmHg 56%
    17:00 +4°C° 0 mm 7 mps 759 mmHg 58%
    18:00 +3°C° 0 mm 7 mps 760 mmHg 61%
    19:00 +2°C° 0 mm 6 mps 761 mmHg 64%
    20:00 +2°C° 0 mm 6 mps 761 mmHg 65%
    21:00 +1°C° 0 mm 6 mps 762 mmHg 66%
    22:00 +1°C° 0 mm 6 mps 762 mmHg 67%
    23:00 -1°C° 0 mm 6 mps 763 mmHg 68%

    24 January, Wednesday

    Time Temperature Precipitation Wind Pressure Humidity
    00:00 -1°C° 0 mm 6 mps 763 mmHg 69%
    01:00 -2°C° 0 mm 6 mps 763 mmHg 69%
    02:00 -2°C° 0 mm 6 mps 763 mmHg 69%
    03:00 -2°C° 0 mm 6 mps 764 mmHg 68%
    04:00 -2°C° 0 mm 6 mps 764 mmHg 68%
    05:00 -2°C° 0 mm 6 mps 764 mmHg 68%
    06:00 -3°C° 0 mm 6 mps 765 mmHg 67%
    07:00 -3°C° 0 mm 6 mps 765 mmHg 67%
    08:00 -2°C° 0 mm 6 mps 766 mmHg 63%
    09:00 -1°C° 0 mm 6 mps 766 mmHg 58%
    10:00 -1°C° 0 mm 7 mps 766 mmHg 53%
    11:00 0°C° 0 mm 7 mps 766 mmHg 50%
    12:00 +2°C° 0 mm 7 mps 766 mmHg 46%
    13:00 +3°C° 0 mm 7 mps 766 mmHg 43%
    14:00 +2°C° 0 mm 7 mps 766 mmHg 43%
    15:00 +2°C° 0 mm 6 mps 766 mmHg 44%
    16:00 +2°C° 0 mm 6 mps 767 mmHg 44%
    17:00 +1°C° 0 mm 6 mps 767 mmHg 47%
    18:00 0°C° 0 mm 5 mps 768 mmHg 50%
    19:00 -1°C° 0 mm 5 mps 769 mmHg 53%
    20:00 -1°C° 0 mm 5 mps 769 mmHg 53%
    21:00 -2°C° 0 mm 5 mps 769 mmHg 53%
    22:00 -4°C° 0 mm 5 mps 770 mmHg 53%
    23:00 -4°C° 0 mm 5 mps 770 mmHg 53%
    Show more